Theta_e
283 283 283 283 284 284 283 283 280 278 278 279 278 280 282 285 287 285 285 290 290 290 289 290 290 290 290 291 291 292 293 293 294 296 298 300 301 302
283 283 282 282 283 283 283 282 281 279 277 279 278 278 280 285 288 283 286 289 290 290 289 289 289 289 289 289 290 290 290 290 291 293 294 296 297 299
282 282 281 282 281 281 281 280 280 280 278 278 279 278 278 279 280 282 284 282 285 290 290 288 288 288 288 288 288 288 288 288 289 289 290 292 294 295
281 281 280 282 279 279 279 279 279 280 279 277 277 277 276 278 278 279 283 284 283 287 287 287 287 287 287 287 287 287 287 287 286 287 287 289 290 292
280 279 279 279 277 277 278 278 279 281 280 278 276 276 276 276 277 279 279 279 282 285 282 283 286 287 287 286 286 287 286 286 285 285 285 285 287 288
279 279 278 278 277 276 277 277 278 278 278 277 276 275 275 276 276 276 276 277 276 279 280 280 283 285 285 285 284 286 285 285 284 283 284 283 284 285
278 278 278 279 280 278 276 276 277 276 276 276 275 273 273 273 272 274 275 276 276 275 276 276 276 277 280 282 282 284 285 284 283 283 283 283 282 283
278 279 280 282 281 282 281 281 278 276 275 273 273 271 271 272 273 273 274 274 274 276 274 273 275 275 276 279 282 283 283 283 282 281 282 282 282 281
278 279 279 281 280 279 280 280 279 279 276 274 272 270 271 270 273 272 273 274 272 273 273 271 273 273 276 278 281 281 281 281 280 280 281 280 280 279
276 274 274 273 275 275 275 274 274 275 275 275 272 268 268 271 274 274 273 274 274 274 273 270 270 272 274 275 280 280 280 280 279 279 280 279 278 278
274 271 273 272 279 280 272 268 264 267 278 279 278 278 278 279 275 273 268 273 271 273 269 268 270 269 272 271 274 279 278 278 277 278 278 279 278 276
277 276 278 274 280 280 273 271 268 266 265 266 271 277 279 279 277 270 265 263 263 266 267 267 268 267 266 272 272 274 273 276 276 276 277 278 277 273
277 277 277 279 280 280 278 274 272 272 269 271 270 266 267 273 271 271 270 268 264 263 267 265 262 263 263 266 271 273 271 271 271 271 275 276 276 275
276 275 275 280 279 280 278 278 279 271 272 269 268 267 266 265 266 267 271 271 269 270 270 268 266 265 262 262 266 270 270 270 269 268 269 273 274 275
275 276 279 281 280 278 279 278 270 266 263 263 263 264 266 271 273 272 275 276 274 275 276 271 269 269 266 263 263 264 264 268 269 267 268 269 268 269
273 276 275 274 267 264 267 270 265 264 265 265 265 265 268 270 270 271 269 270 269 268 275 276 274 271 265 267 266 264 266 264 267 266 266 267 269 270
265 265 266 262 263 262 262 263 263 266 267 266 266 267 268 269 268 269 270 268 266 266 266 270 274 273 271 269 264 265 265 264 266 267 266 266 270 269
265 263 262 267 268 266 266 267 268 266 269 269 266 267 267 267 266 266 265 264 264 264 264 265 266 266 268 270 273 266 264 263 265 268 268 265 266 269
265 268 271 267 267 267 268 266 267 269 269 269 268 265 266 265 262 264 264 264 262 261 262 263 263 263 260 258 266 274 265 266 265 263 265 265 265 267
272 271 271 270 269 268 268 268 268 268 269 269 268 268 265 265 262 263 264 262 262 261 263 263 262 263 261 260 259 264 273 267 264 261 262 263 266 270
274 272 272 272 270 270 270 270 271 271 271 271 270 269 268 267 266 268 268 265 263 263 265 266 267 267 264 263 257 258 262 272 270 265 263 262 262 260
276 275 274 273 272 272 272 272 273 273 272 272 272 272 271 269 269 269 267 267 265 266 268 269 267 266 263 263 260 254 257 260 266 269 270 269 259 259
280 280 279 277 276 274 273 273 274 274 274 273 273 272 271 268 270 270 269 268 269 268 267 266 265 265 261 262 260 255 254 254 258 259 259 269 269 270
Wind_Speed
4 5 4 2 4 4 4 3 5 4 1 2 2 5 4 4 6 4 4 12 12 13 15 17 18 20 21 22 22 23 25 25 24 24 25 24 25 25
3 5 4 3 5 4 4 3 2 4 4 1 3 3 5 4 6 6 6 7 12 10 13 14 16 18 20 22 21 23 24 25 26 25 24 25 25 25
4 6 5 4 4 4 4 3 3 3 5 3 3 4 4 5 5 4 6 5 5 15 13 14 15 16 18 20 21 22 23 24 25 25 24 24 25 24
5 6 5 4 5 4 3 4 3 3 4 5 2 4 4 3 3 5 5 6 5 14 16 15 13 15 16 19 20 21 22 23 24 24 24 24 24 24
5 5 5 5 5 3 3 4 2 2 3 4 3 1 3 2 3 4 5 5 5 13 14 14 12 14 16 19 19 20 20 21 23 23 23 22 23 24
4 4 4 5 5 5 4 4 3 4 4 5 3 2 2 2 2 2 3 4 5 6 10 11 11 14 16 18 18 19 19 20 22 23 23 21 21 22
5 5 4 7 9 5 4 3 4 3 3 3 3 2 2 2 2 2 1 1 3 4 3 5 4 5 8 12 14 17 18 19 21 21 21 21 20 21
6 4 4 10 11 13 12 9 4 4 4 3 2 3 2 1 1 1 1 1 1 3 2 4 3 5 5 5 16 16 17 18 20 21 20 20 19 19
6 6 5 4 7 6 11 12 11 11 5 4 5 3 3 3 1 2 2 2 2 2 0 2 2 2 4 5 16 16 17 16 18 20 18 21 19 19
5 5 5 4 4 6 6 6 5 5 4 4 6 5 4 3 1 2 2 3 1 1 1 2 1 0 2 2 11 15 16 15 17 19 17 19 19 17
4 3 5 5 9 12 7 6 3 2 5 10 10 9 5 5 4 2 2 2 1 1 2 3 2 2 1 2 3 13 13 14 17 18 18 18 20 16
4 5 10 8 12 12 6 6 5 4 3 2 2 3 2 5 5 4 4 3 2 2 3 3 2 2 3 1 2 2 3 10 15 18 17 18 20 6
6 6 5 12 13 12 11 6 5 5 4 4 2 1 1 1 1 2 3 3 3 2 4 3 1 2 1 3 2 2 2 2 2 6 13 15 18 16
7 5 5 14 13 13 9 10 10 5 3 2 1 2 2 2 3 2 2 3 3 4 2 4 3 3 2 2 2 3 2 1 1 3 3 9 12 14
4 9 13 15 15 10 11 11 5 3 3 2 3 3 3 4 2 1 1 2 2 1 2 2 3 3 3 3 3 2 2 3 2 1 3 3 3 3
6 6 7 3 4 4 2 4 4 4 4 3 3 2 1 2 2 2 2 1 1 2 2 3 4 3 1 3 3 2 2 2 2 2 2 2 3 3
6 3 3 3 3 2 1 2 2 3 3 3 3 3 2 2 2 2 2 1 2 2 2 2 2 3 3 4 2 2 2 2 3 3 2 3 3 3
4 3 3 6 7 6 5 5 4 5 5 4 3 3 3 4 3 2 2 3 3 2 2 2 0 2 3 3 7 3 2 3 3 3 3 3 6 4
4 5 7 7 7 7 7 6 6 7 6 5 5 5 4 3 3 3 3 3 2 2 3 3 2 3 1 2 4 7 2 3 2 2 2 3 5 6
5 7 8 7 8 8 7 8 7 5 7 7 6 6 5 5 3 3 4 5 4 2 2 2 2 4 5 5 3 4 6 2 2 2 3 3 5 14
9 8 7 8 8 8 8 8 8 8 8 7 8 7 7 6 6 6 6 7 5 3 4 4 6 6 2 3 3 4 4 7 8 4 3 5 5 3
8 9 8 8 8 8 8 8 8 8 8 8 8 8 8 8 8 8 7 6 6 6 6 5 1 3 2 4 5 4 3 3 6 13 16 13 2 5
9 9 9 9 8 8 8 8 9 9 9 9 9 9 8 8 8 7 7 7 6 6 5 3 2 2 3 4 4 3 3 4 2 3 4 13 17 19
Wind_Direction
104 99 88 53 71 79 104 124 127 145 127 355 42 5 356 36 84 58 48 58 57 58 52 43 39 38 36 33 34 31 32 28 27 32 26 28 29 26
110 97 80 58 66 65 86 88 99 133 126 135 46 20 1 44 57 52 56 51 59 46 63 50 42 37 40 36 33 34 31 30 27 29 27 29 32 26
89 96 83 90 85 77 76 76 81 103 115 65 72 21 32 28 21 38 57 45 36 60 58 55 48 39 38 40 34 37 32 32 27 27 27 27 28 31
115 101 104 102 80 71 73 80 84 70 115 125 114 33 57 356 11 49 39 45 58 54 47 36 49 41 42 38 37 37 36 34 31 27 27 25 28 29
125 121 125 114 99 89 84 88 71 85 105 122 123 91 50 8 41 40 47 16 35 57 43 33 36 45 45 41 30 36 38 34 34 26 30 25 24 29
106 111 115 118 123 127 105 97 94 91 85 101 90 108 86 17 55 57 67 49 29 37 31 42 44 43 44 45 28 32 40 34 33 28 24 29 23 25
113 118 120 127 120 130 127 110 121 108 110 106 107 101 66 45 56 335 54 147 62 27 28 31 16 13 30 38 29 26 39 37 32 27 24 24 26 23
139 126 114 115 108 104 102 103 118 137 132 129 120 114 121 136 108 41 40 86 137 44 29 30 17 35 10 29 35 35 33 39 32 21 23 25 26 21
144 139 132 127 112 109 100 93 81 80 90 142 138 142 138 198 150 77 65 81 94 324 166 61 19 38 10 12 42 39 26 38 30 20 26 25 22 22
145 144 132 132 146 117 106 86 71 71 64 91 117 159 154 158 126 153 133 106 107 336 28 87 345 338 312 320 35 34 30 28 26 21 21 26 24 22
135 134 149 158 165 152 123 122 75 23 97 118 135 146 149 166 150 70 34 151 74 326 6 116 330 305 272 293 343 30 26 30 22 21 17 21 22 22
153 180 175 175 179 163 150 153 153 207 153 51 57 170 209 160 134 124 152 113 122 10 274 96 342 22 354 269 291 21 9 33 19 17 15 13 14 19
173 181 184 186 189 188 179 176 187 162 182 157 147 93 23 127 146 154 168 144 153 222 241 107 175 357 85 300 305 338 9 343 344 1 7 3 8 11
179 171 181 193 193 196 185 199 201 152 133 133 118 191 186 219 257 241 210 209 208 197 207 152 160 154 145 319 287 321 316 307 282 322 332 343 346 353
148 182 189 200 194 197 194 203 150 135 137 135 192 207 196 196 174 203 182 198 221 211 166 175 165 161 154 205 243 277 332 301 275 289 303 317 302 309
179 192 180 147 100 142 139 206 149 164 174 175 193 217 159 138 186 166 155 181 103 311 297 188 194 166 240 236 189 266 239 275 288 282 255 270 273 278
117 94 109 112 149 165 215 197 171 170 189 186 175 178 181 157 195 163 154 143 169 191 270 295 253 226 231 215 292 243 267 271 267 277 323 279 303 275
99 145 177 187 192 192 197 205 199 197 208 191 192 189 185 182 184 189 143 163 179 211 213 238 272 3 339 303 224 236 261 253 268 280 280 297 307 313
147 184 193 195 201 200 200 198 206 206 191 196 197 198 191 191 163 192 189 168 214 206 225 202 166 139 123 245 285 279 224 254 261 300 251 259 284 302
194 190 202 197 202 202 202 205 207 187 200 204 202 203 193 185 174 200 192 191 200 211 233 202 183 187 177 207 217 262 294 247 209 246 277 265 262 287
202 209 203 200 203 204 207 204 201 202 199 196 205 203 202 191 213 212 206 200 187 181 224 232 227 196 153 80 4 285 284 297 305 287 276 295 290 280
203 207 207 204 206 204 205 206 205 204 201 205 209 204 201 197 212 209 205 206 206 214 227 240 189 172 160 198 237 237 270 302 299 302 300 295 197 293
212 213 210 205 206 203 204 205 209 211 209 205 205 204 194 196 207 206 208 208 216 213 213 225 186 173 211 200 211 239 260 271 260 286 278 285 298 298